Time,TemperatureF,DewpointF,PressureIn,WindDirection,WindDirectionDegrees,WindSpeedMPH,WindSpeedGustMPH,Humidity,HourlyPrecipIn,Conditions,Clouds,dailyrainin,SoftwareType,DateUTC
2013-03-14 00:02:00,29.3,21.1,30.49,NE,46,0.0,0.0,71,0.00,CLR,,0.00,WeatherDisplay:10.37,2013-03-14 05:02:00,
2013-03-14 00:07:00,29.1,21.2,30.49,NE,46,0.0,0.0,72,0.00,CLR,,0.00,WeatherDisplay:10.37,2013-03-14 05:07:00,
2013-03-14 00:12:00,29.1,21.2,30.49,NE,46,0.0,0.0,72,0.00,CLR,,0.00,WeatherDisplay:10.37,2013-03-14 05:12:00,
2013-03-14 00:17:00,29.1,21.2,30.49,NE,46,0.0,0.0,72,0.00,CLR,,0.00,WeatherDisplay:10.37,2013-03-14 05:17:00,
2013-03-14 00:22:00,29.3,21.1,30.49,NE,46,0.0,0.0,71,0.00,CLR,,0.00,WeatherDisplay:10.37,2013-03-14 05:22:00,
2013-03-14 00:27:00,29.3,21.1,30.49,NE,46,0.0,0.0,71,0.00,CLR,,0.00,WeatherDisplay:10.37,2013-03-14 05:27:00,
2013-03-14 00:32:00,29.1,21.2,30.49,NE,46,0.0,0.0,72,0.00,CLR,,0.00,WeatherDisplay:10.37,2013-03-14 05:32:00,
2013-03-14 00:37:00,29.0,21.1,30.49,NE,46,0.0,0.0,72,0.00,CLR,,0.00,WeatherDisplay:10.37,2013-03-14 05:37:00,
2013-03-14 00:43:00,28.8,20.9,30.49,NE,46,0.0,0.0,72,0.00,CLR,,0.00,WeatherDisplay:10.37,2013-03-14 05:43:00,
2013-03-14 00:48:00,28.5,20.9,30.49,NE,46,0.0,0.0,73,0.00,CLR,,0.00,WeatherDisplay:10.37,2013-03-14 05:48:00,
2013-03-14 00:53:00,28.5,20.9,30.49,NE,46,0.0,0.0,73,0.00,CLR,,0.00,WeatherDisplay:10.37,2013-03-14 05:53:00,
2013-03-14 00:58:00,28.5,20.9,30.49,NE,46,0.0,0.0,73,0.00,CLR,,0.00,WeatherDisplay:10.37,2013-03-14 05:58:00,
2013-03-14 01:03:00,28.4,20.8,30.50,NE,46,0.0,0.0,73,0.00,CLR,,0.00,WeatherDisplay:10.37,2013-03-14 06:03:00,
2013-03-14 01:08:00,28.4,20.8,30.49,NE,46,0.0,0.0,73,0.00,CLR,,0.00,WeatherDisplay:10.37,2013-03-14 06:08:00,
2013-03-14 01:13:00,28.4,20.8,30.49,NE,46,0.0,0.0,73,0.00,CLR,,0.00,WeatherDisplay:10.37,2013-03-14 06:13:00,
2013-03-14 01:18:00,28.2,20.7,30.49,NE,46,0.0,0.0,73,0.00,CLR,,0.00,WeatherDisplay:10.37,2013-03-14 06:18:00,
2013-03-14 01:23:00,28.2,20.7,30.50,NE,46,0.0,0.0,73,0.00,CLR,,0.00,WeatherDisplay:10.37,2013-03-14 06:23:00,
2013-03-14 01:28:00,28.1,20.9,30.50,NE,46,0.0,0.0,74,0.00,CLR,,0.00,WeatherDisplay:10.37,2013-03-14 06:28:00,
2013-03-14 01:33:00,27.9,21.0,30.50,NE,46,0.0,0.0,75,0.00,CLR,,0.00,WeatherDisplay:10.37,2013-03-14 06:33:00,
2013-03-14 01:38:00,27.9,21.0,30.50,NE,46,0.0,0.0,75,0.00,CLR,,0.00,WeatherDisplay:10.37,2013-03-14 06:38:00,
2013-03-14 01:43:00,27.9,21.0,30.50,NE,46,0.0,0.0,75,0.00,CLR,,0.00,WeatherDisplay:10.37,2013-03-14 06:43:00,
2013-03-14 01:48:00,27.9,20.7,30.50,NE,46,0.0,0.0,74,0.00,CLR,,0.00,WeatherDisplay:10.37,2013-03-14 06:48:00,
2013-03-14 01:53:00,27.9,20.7,30.50,NE,46,0.0,0.0,74,0.00,CLR,,0.00,WeatherDisplay:10.37,2013-03-14 06:53:00,
2013-03-14 01:58:00,28.1,20.9,30.50,NE,46,0.0,0.0,74,0.00,CLR,,0.00,WeatherDisplay:10.37,2013-03-14 06:58:00,
2013-03-14 02:03:00,28.2,20.7,30.50,NE,46,0.0,0.0,73,0.00,CLR,,0.00,WeatherDisplay:10.37,2013-03-14 07:03:00,
2013-03-14 02:08:00,28.4,20.5,30.50,NE,46,0.0,0.0,72,0.00,CLR,,0.00,WeatherDisplay:10.37,2013-03-14 07:08:00,
2013-03-14 02:13:00,28.7,20.1,30.50,NE,46,0.0,0.0,70,0.00,CLR,,0.00,WeatherDisplay:10.37,2013-03-14 07:13:00,
2013-03-14 02:18:00,28.7,20.1,30.50,NE,46,0.0,0.0,70,0.00,CLR,,0.00,WeatherDisplay:10.37,2013-03-14 07:18:00,
2013-03-14 02:23:00,28.7,20.1,30.50,NE,46,0.0,0.0,70,0.00,CLR,,0.00,WeatherDisplay:10.37,2013-03-14 07:23:00,
2013-03-14 02:28:00,28.5,20.0,30.50,NE,46,0.0,0.0,70,0.00,CLR,,0.00,WeatherDisplay:10.37,2013-03-14 07:28:00,
2013-03-14 02:33:00,28.5,20.0,30.50,NE,46,0.0,0.0,70,0.00,CLR,,0.00,WeatherDisplay:10.37,2013-03-14 07:33:00,
2013-03-14 02:38:00,28.4,19.9,30.50,NE,46,0.0,0.0,70,0.00,CLR,,0.00,WeatherDisplay:10.37,2013-03-14 07:38:00,
2013-03-14 02:43:00,28.4,19.9,30.50,NE,46,0.0,0.0,70,0.00,CLR,,0.00,WeatherDisplay:10.37,2013-03-14 07:43:00,
2013-03-14 02:48:00,28.4,19.9,30.50,NE,46,0.0,0.0,70,0.00,CLR,,0.00,WeatherDisplay:10.37,2013-03-14 07:48:00,
2013-03-14 02:53:00,28.4,19.9,30.50,NE,46,0.0,0.0,70,0.00,CLR,,0.00,WeatherDisplay:10.37,2013-03-14 07:53:00,
2013-03-14 02:58:00,28.2,19.7,30.50,NE,46,0.0,0.0,70,0.00,CLR,,0.00,WeatherDisplay:10.37,2013-03-14 07:58:00,
2013-03-14 03:03:00,28.2,19.3,30.50,NE,46,0.0,0.0,69,0.00,CLR,,0.00,WeatherDisplay:10.37,2013-03-14 08:03:00,
2013-03-14 03:08:00,28.2,19.0,30.50,NE,46,0.0,0.0,68,0.00,CLR,,0.00,WeatherDisplay:10.37,2013-03-14 08:08:00,
2013-03-14 03:13:00,28.5,19.3,30.50,NE,46,0.0,0.0,68,0.00,CLR,,0.00,WeatherDisplay:10.37,2013-03-14 08:13:00,
2013-03-14 03:18:00,28.7,19.1,30.50,NE,46,0.0,0.0,67,0.00,CLR,,0.00,WeatherDisplay:10.37,2013-03-14 08:18:00,
2013-03-14 03:23:00,28.5,18.9,30.50,NE,46,0.0,0.0,67,0.00,CLR,,0.00,WeatherDisplay:10.37,2013-03-14 08:23:00,
2013-03-14 03:28:00,28.5,18.9,30.50,NE,46,0.0,0.0,67,0.00,CLR,,0.00,WeatherDisplay:10.37,2013-03-14 08:28:00,
2013-03-14 03:33:00,28.8,19.2,30.50,NE,46,0.0,0.0,67,0.00,CLR,,0.00,WeatherDisplay:10.37,2013-03-14 08:33:00,
2013-03-14 03:38:00,28.7,19.1,30.49,NE,46,0.0,0.0,67,0.00,CLR,,0.00,WeatherDisplay:10.37,2013-03-14 08:38:00,
2013-03-14 03:43:00,28.7,19.5,30.49,NE,46,0.0,0.0,68,0.00,CLR,,0.00,WeatherDisplay:10.37,2013-03-14 08:43:00,
2013-03-14 03:48:00,28.7,19.5,30.49,NE,46,0.0,0.0,68,0.00,CLR,,0.00,WeatherDisplay:10.37,2013-03-14 08:48:00,
2013-03-14 03:53:00,28.5,19.3,30.49,NE,46,0.0,0.0,68,0.00,CLR,,0.00,WeatherDisplay:10.37,2013-03-14 08:53:00,
2013-03-14 03:58:00,28.2,19.0,30.49,NE,46,0.0,0.0,68,0.00,CLR,,0.00,WeatherDisplay:10.37,2013-03-14 08:58:00,
2013-03-14 04:03:00,28.2,19.3,30.49,NE,46,0.0,0.0,69,0.00,CLR,,0.00,WeatherDisplay:10.37,2013-03-14 09:03:00,
2013-03-14 04:08:00,27.9,19.4,30.49,NE,46,0.0,0.0,70,0.00,CLR,,0.00,WeatherDisplay:10.37,2013-03-14 09:08:00,
2013-03-14 04:13:00,27.6,19.1,30.49,NE,46,0.0,0.0,70,0.00,CLR,,0.00,WeatherDisplay:10.37,2013-03-14 09:13:00,
2013-03-14 04:18:00,27.5,19.3,30.50,NE,46,0.0,0.0,71,0.00,CLR,,0.00,WeatherDisplay:10.37,2013-03-14 09:18:00,
2013-03-14 04:23:00,27.2,19.0,30.50,NE,46,0.0,0.0,71,0.00,CLR,,0.00,WeatherDisplay:10.37,2013-03-14 09:23:00,
2013-03-14 04:28:00,26.9,19.1,30.50,NE,46,0.0,0.0,72,0.00,CLR,,0.00,WeatherDisplay:10.37,2013-03-14 09:28:00,
2013-03-14 04:33:00,26.7,19.2,30.50,NE,46,0.0,0.0,73,0.00,CLR,,0.00,WeatherDisplay:10.37,2013-03-14 09:33:00,
2013-03-14 04:38:00,26.6,19.1,30.50,NE,46,0.0,0.0,73,0.00,CLR,,0.00,WeatherDisplay:10.37,2013-03-14 09:38:00,
2013-03-14 04:43:00,26.4,18.9,30.51,NE,46,0.0,0.0,73,0.00,CLR,,0.00,WeatherDisplay:10.37,2013-03-14 09:43:00,
2013-03-14 04:48:00,26.4,18.9,30.51,NE,46,0.0,0.0,73,0.00,CLR,,0.00,WeatherDisplay:10.37,2013-03-14 09:48:00,
2013-03-14 04:53:00,26.6,19.1,30.51,NE,46,0.0,0.0,73,0.00,CLR,,0.00,WeatherDisplay:10.37,2013-03-14 09:53:00,
2013-03-14 04:58:00,26.6,19.1,30.51,NE,46,0.0,0.0,73,0.00,CLR,,0.00,WeatherDisplay:10.37,2013-03-14 09:58:00,
2013-03-14 05:03:00,26.6,19.1,30.51,NE,46,0.0,0.0,73,0.00,CLR,,0.00,WeatherDisplay:10.37,2013-03-14 10:03:00,
2013-03-14 05:08:00,26.7,19.2,30.51,NE,46,0.0,0.0,73,0.00,CLR,,0.00,WeatherDisplay:10.37,2013-03-14 10:08:00,
2013-03-14 05:13:00,26.7,18.9,30.52,NE,46,0.0,0.0,72,0.00,CLR,,0.00,WeatherDisplay:10.37,2013-03-14 10:13:00,
2013-03-14 05:18:00,27.0,18.8,30.52,NE,46,0.0,0.0,71,0.00,CLR,,0.00,WeatherDisplay:10.37,2013-03-14 10:18:00,
2013-03-14 05:23:00,27.3,18.8,30.52,NE,46,0.0,0.0,70,0.00,CLR,,0.00,WeatherDisplay:10.37,2013-03-14 10:23:00,
2013-03-14 05:28:00,27.5,19.0,30.52,NE,46,0.0,0.0,70,0.00,CLR,,0.00,WeatherDisplay:10.37,2013-03-14 10:28:00,
2013-03-14 05:33:00,27.5,19.0,30.52,NE,46,0.0,0.0,70,0.00,CLR,,0.00,WeatherDisplay:10.37,2013-03-14 10:33:00,
2013-03-14 05:38:00,27.5,19.0,30.52,NE,46,0.0,0.0,70,0.00,CLR,,0.00,WeatherDisplay:10.37,2013-03-14 10:38:00,
2013-03-14 05:43:00,27.2,19.0,30.52,NE,46,0.0,0.0,71,0.00,CLR,,0.00,WeatherDisplay:10.37,2013-03-14 10:43:00,
2013-03-14 05:48:00,26.9,19.1,30.52,NE,46,0.0,0.0,72,0.00,CLR,,0.00,WeatherDisplay:10.37,2013-03-14 10:48:00,
2013-03-14 05:53:00,26.6,19.1,30.52,NE,46,0.0,0.0,73,0.00,CLR,,0.00,WeatherDisplay:10.37,2013-03-14 10:53:00,
2013-03-14 05:58:00,26.1,18.6,30.52,NE,46,0.0,0.0,73,0.00,CLR,,0.00,WeatherDisplay:10.37,2013-03-14 10:58:00,
2013-03-14 06:03:00,25.8,18.7,30.52,NE,46,0.0,0.0,74,0.00,CLR,,0.00,WeatherDisplay:10.37,2013-03-14 11:03:00,
2013-03-14 06:08:00,25.6,18.8,30.53,NE,46,0.0,0.0,75,0.00,CLR,,0.00,WeatherDisplay:10.37,2013-03-14 11:08:00,
2013-03-14 06:13:00,25.3,18.8,30.53,NE,46,0.0,0.0,76,0.00,CLR,,0.00,WeatherDisplay:10.37,2013-03-14 11:13:00,
2013-03-14 06:18:00,25.1,18.6,30.53,NE,46,0.0,0.0,76,0.00,CLR,,0.00,WeatherDisplay:10.37,2013-03-14 11:18:00,
2013-03-14 06:23:00,25.0,18.8,30.53,NE,46,0.0,0.0,77,0.00,CLR,,0.00,WeatherDisplay:10.37,2013-03-14 11:23:00,
2013-03-14 06:28:00,24.8,18.6,30.53,NE,46,0.0,0.0,77,0.00,CLR,,0.00,WeatherDisplay:10.37,2013-03-14 11:28:00,
2013-03-14 06:33:00,24.7,18.5,30.54,NE,46,0.0,0.0,77,0.00,CLR,,0.00,WeatherDisplay:10.37,2013-03-14 11:33:00,
2013-03-14 06:38:00,24.5,18.3,30.54,NE,46,0.0,0.0,77,0.00,CLR,,0.00,WeatherDisplay:10.37,2013-03-14 11:38:00,
2013-03-14 06:43:00,24.5,18.6,30.53,NE,46,0.0,0.0,78,0.00,CLR,,0.00,WeatherDisplay:10.37,2013-03-14 11:43:00,
2013-03-14 06:48:00,24.5,18.6,30.54,NE,46,0.0,0.0,78,0.00,CLR,,0.00,WeatherDisplay:10.37,2013-03-14 11:48:00,
2013-03-14 06:53:00,24.4,18.5,30.54,NE,46,0.0,0.0,78,0.00,CLR,,0.00,WeatherDisplay:10.37,2013-03-14 11:53:00,
2013-03-14 06:58:00,24.2,18.3,30.54,NE,46,0.0,0.0,78,0.00,CLR,,0.00,WeatherDisplay:10.37,2013-03-14 11:58:00,
2013-03-14 07:03:00,24.2,18.6,30.53,NE,46,0.0,0.0,79,0.00,CLR,,0.00,WeatherDisplay:10.37,2013-03-14 12:03:00,
2013-03-14 07:08:00,24.2,18.6,30.53,NE,46,0.0,0.0,79,0.00,CLR,,0.00,WeatherDisplay:10.37,2013-03-14 12:08:00,
2013-03-14 07:13:00,24.1,18.5,30.53,NE,46,0.0,0.0,79,0.00,CLR,,0.00,WeatherDisplay:10.37,2013-03-14 12:13:00,
2013-03-14 07:18:00,24.1,18.8,30.53,NE,46,0.0,0.0,80,0.00,CLR,,0.00,WeatherDisplay:10.37,2013-03-14 12:18:00,
2013-03-14 07:23:00,24.1,18.8,30.53,NE,46,0.0,0.0,80,0.00,CLR,,0.00,WeatherDisplay:10.37,2013-03-14 12:23:00,
2013-03-14 07:28:00,24.2,18.9,30.53,NE,46,0.0,0.0,80,0.00,CLR,,0.00,WeatherDisplay:10.37,2013-03-14 12:28:00,
2013-03-14 07:33:00,24.4,19.1,30.53,NE,46,1.1,0.0,80,0.00,CLR,,0.00,WeatherDisplay:10.37,2013-03-14 12:33:00,
2013-03-14 07:38:00,24.7,19.4,30.53,NE,46,0.0,0.0,80,0.00,CLR,,0.00,WeatherDisplay:10.37,2013-03-14 12:38:00,
2013-03-14 07:43:00,25.0,19.4,30.53,NE,46,0.0,0.0,79,0.00,CLR,,0.00,WeatherDisplay:10.37,2013-03-14 12:43:00,
2013-03-14 07:48:00,25.7,19.8,30.53,NE,46,0.0,0.0,78,0.00,CLR,,0.00,WeatherDisplay:10.37,2013-03-14 12:48:00,
2013-03-14 07:53:00,26.9,19.4,30.53,NE,46,0.0,0.1,73,0.00,CLR,,0.00,WeatherDisplay:10.37,2013-03-14 12:53:00,
2013-03-14 07:58:00,28.2,19.7,30.54,NE,36,1.0,0.0,70,0.00,CLR,,0.00,WeatherDisplay:10.37,2013-03-14 12:58:00,
2013-03-14 08:03:00,29.4,19.4,30.54,North,355,1.1,0.0,66,0.00,CLR,,0.00,WeatherDisplay:10.37,2013-03-14 13:03:00,
2013-03-14 08:08:00,30.3,19.6,30.54,North,355,1.1,0.0,64,0.00,CLR,,0.00,WeatherDisplay:10.37,2013-03-14 13:08:00,
2013-03-14 08:13:00,31.2,20.4,30.54,North,5,1.1,1.1,64,0.00,CLR,,0.00,WeatherDisplay:10.37,2013-03-14 13:13:00,
2013-03-14 08:18:00,32.1,19.8,30.54,NNW,338,2.3,2.3,60,0.00,CLR,,0.00,WeatherDisplay:10.37,2013-03-14 13:18:00,
2013-03-14 08:23:00,32.5,20.1,30.54,West,280,1.1,1.1,60,0.00,CLR,,0.00,WeatherDisplay:10.37,2013-03-14 13:23:00,
2013-03-14 08:28:00,32.8,18.8,30.54,NNE,14,4.0,4.0,56,0.00,CLR,,0.00,WeatherDisplay:10.37,2013-03-14 13:28:00,
2013-03-14 08:33:00,33.2,19.2,30.54,NNW,331,5.0,5.0,56,0.00,CLR,,0.00,WeatherDisplay:10.37,2013-03-14 13:33:00,
2013-03-14 08:38:00,33.5,18.2,30.54,NNE,17,2.3,2.3,53,0.00,CLR,,0.00,WeatherDisplay:10.37,2013-03-14 13:38:00,
2013-03-14 08:44:00,34.0,19.1,30.54,NNE,13,0.0,0.0,54,0.00,CLR,,0.00,WeatherDisplay:10.37,2013-03-14 13:44:00,
2013-03-14 08:49:00,34.6,20.1,30.54,ENE,73,2.3,2.3,55,0.00,CLR,,0.00,WeatherDisplay:10.37,2013-03-14 13:49:00,
2013-03-14 08:54:00,34.7,21.4,30.54,NNE,29,1.1,1.1,58,0.00,CLR,,0.00,WeatherDisplay:10.37,2013-03-14 13:54:00,
2013-03-14 08:59:00,34.4,19.9,30.55,ENE,60,1.0,0.0,55,0.00,CLR,,0.00,WeatherDisplay:10.37,2013-03-14 13:59:00,
2013-03-14 09:04:00,34.6,20.5,30.55,NE,43,4.6,4.6,56,0.00,CLR,,0.00,WeatherDisplay:10.37,2013-03-14 14:04:00,
2013-03-14 09:09:00,34.7,20.2,30.56,NNE,17,2.3,0.0,55,0.00,CLR,,0.00,WeatherDisplay:10.37,2013-03-14 14:09:00,
2013-03-14 09:14:00,35.3,20.7,30.55,ESE,123,3.5,3.5,55,0.00,CLR,,0.00,WeatherDisplay:10.37,2013-03-14 14:14:00,
2013-03-14 09:19:00,34.7,19.3,30.55,SE,133,3.5,3.5,53,0.00,CLR,,0.00,WeatherDisplay:10.37,2013-03-14 14:19:00,
2013-03-14 09:24:00,35.0,20.4,30.55,NNE,28,1.1,0.0,55,0.00,CLR,,0.00,WeatherDisplay:10.37,2013-03-14 14:24:00,
2013-03-14 09:29:00,35.5,20.5,30.54,ESE,105,1.1,0.0,54,0.00,CLR,,0.00,WeatherDisplay:10.37,2013-03-14 14:29:00,
2013-03-14 09:34:00,36.2,21.1,30.54,NE,38,2.3,2.3,54,0.00,CLR,,0.00,WeatherDisplay:10.37,2013-03-14 14:34:00,
2013-03-14 09:39:00,36.9,22.2,30.54,NE,38,2.3,0.0,55,0.00,CLR,,0.00,WeatherDisplay:10.37,2013-03-14 14:39:00,
2013-03-14 09:44:00,37.3,20.8,30.54,ESE,121,1.0,1.0,51,0.00,CLR,,0.00,WeatherDisplay:10.37,2013-03-14 14:44:00,
2013-03-14 09:49:00,36.9,21.3,30.54,ENE,58,0.0,0.0,53,0.00,CLR,,0.00,WeatherDisplay:10.37,2013-03-14 14:49:00,
2013-03-14 09:54:00,37.6,22.4,30.54,NNE,24,4.6,4.6,54,0.00,CLR,,0.00,WeatherDisplay:10.37,2013-03-14 14:54:00,
2013-03-14 09:59:00,37.8,22.6,30.54,NNE,26,2.3,2.3,54,0.00,CLR,,0.00,WeatherDisplay:10.37,2013-03-14 14:59:00,
2013-03-14 10:04:00,38.0,19.5,30.54,East,79,2.3,2.3,47,0.00,CLR,,0.00,WeatherDisplay:10.37,2013-03-14 15:04:00,
2013-03-14 10:09:00,38.6,21.1,30.54,NNE,26,2.3,0.0,49,0.00,CLR,,0.00,WeatherDisplay:10.37,2013-03-14 15:09:00,
2013-03-14 10:14:00,39.3,20.2,30.54,NNE,24,1.1,0.0,46,0.00,CLR,,0.00,WeatherDisplay:10.37,2013-03-14 15:14:00,
2013-03-14 10:19:00,39.2,20.1,30.54,East,79,1.1,1.1,46,0.00,CLR,,0.00,WeatherDisplay:10.37,2013-03-14 15:19:00,
2013-03-14 10:24:00,38.9,18.8,30.54,ESE,120,3.5,3.5,44,0.00,CLR,,0.00,WeatherDisplay:10.37,2013-03-14 15:24:00,
2013-03-14 10:29:00,39.1,21.0,30.54,NNE,28,0.0,0.0,48,0.00,CLR,,0.00,WeatherDisplay:10.37,2013-03-14 15:29:00,
2013-03-14 10:34:00,39.6,19.5,30.54,NE,50,2.3,2.3,44,0.00,CLR,,0.00,WeatherDisplay:10.37,2013-03-14 15:34:00,
2013-03-14 10:39:00,39.3,18.6,30.54,East,101,2.3,2.3,43,0.00,CLR,,0.00,WeatherDisplay:10.37,2013-03-14 15:39:00,
2013-03-14 10:44:00,39.6,19.5,30.54,ESE,123,3.5,3.5,44,0.00,CLR,,0.00,WeatherDisplay:10.37,2013-03-14 15:44:00,
2013-03-14 10:49:00,40.1,18.3,30.53,SW,229,2.3,2.3,41,0.00,CLR,,0.00,WeatherDisplay:10.37,2013-03-14 15:49:00,
2013-03-14 10:54:00,40.5,18.6,30.53,SE,146,1.1,0.0,41,0.00,CLR,,0.00,WeatherDisplay:10.37,2013-03-14 15:54:00,
2013-03-14 10:59:00,40.9,22.2,30.53,East,96,4.0,4.0,47,0.00,CLR,,0.00,WeatherDisplay:10.37,2013-03-14 15:59:00,
2013-03-14 11:04:00,41.1,20.8,30.52,South,188,3.5,3.5,44,0.00,CLR,,0.00,WeatherDisplay:10.37,2013-03-14 16:04:00,
2013-03-14 11:09:00,40.9,19.5,30.52,SSW,203,0.0,0.0,42,0.00,CLR,,0.00,WeatherDisplay:10.37,2013-03-14 16:09:00,
2013-03-14 11:14:00,41.2,20.9,30.52,SE,138,2.3,2.3,44,0.00,CLR,,0.00,WeatherDisplay:10.37,2013-03-14 16:14:00,
2013-03-14 11:19:00,41.3,17.6,30.52,South,171,0.0,0.0,38,0.00,CLR,,0.00,WeatherDisplay:10.37,2013-03-14 16:19:00,
2013-03-14 11:24:00,42.5,21.0,30.52,NNE,24,3.5,3.5,42,0.00,CLR,,0.00,WeatherDisplay:10.37,2013-03-14 16:24:00,
2013-03-14 11:29:00,43.8,20.4,30.52,NNE,25,1.1,0.0,39,0.00,CLR,,0.00,WeatherDisplay:10.37,2013-03-14 16:29:00,
2013-03-14 11:34:00,44.3,20.9,30.52,South,189,0.0,0.0,39,0.00,CLR,,0.00,WeatherDisplay:10.37,2013-03-14 16:34:00,
2013-03-14 11:39:00,43.8,19.8,30.52,SW,214,3.5,3.5,38,0.00,CLR,,0.00,WeatherDisplay:10.37,2013-03-14 16:39:00,
2013-03-14 11:44:00,43.3,18.7,30.51,SSW,192,0.0,0.0,37,0.00,CLR,,0.00,WeatherDisplay:10.37,2013-03-14 16:44:00,
2013-03-14 11:49:00,43.1,19.2,30.51,SSW,198,3.5,3.5,38,0.00,CLR,,0.00,WeatherDisplay:10.37,2013-03-14 16:49:00,
2013-03-14 11:54:00,42.9,19.0,30.51,ENE,67,1.1,1.1,38,0.00,CLR,,0.00,WeatherDisplay:10.37,2013-03-14 16:54:00,
2013-03-14 11:59:00,43.6,19.6,30.51,ESE,117,2.3,2.3,38,0.00,CLR,,0.00,WeatherDisplay:10.37,2013-03-14 16:59:00,
2013-03-14 12:04:00,44.5,20.4,30.51,SE,130,3.5,3.5,38,0.00,CLR,,0.00,WeatherDisplay:10.37,2013-03-14 17:04:00,
2013-03-14 12:09:00,44.3,18.3,30.51,ENE,76,4.6,4.6,35,0.00,CLR,,0.00,WeatherDisplay:10.37,2013-03-14 17:09:00,
2013-03-14 12:14:00,44.3,18.3,30.50,SSW,212,2.0,2.0,35,0.00,CLR,,0.00,WeatherDisplay:10.37,2013-03-14 17:14:00,
2013-03-14 12:19:00,44.8,18.8,30.50,South,178,3.5,3.5,35,0.00,CLR,,0.00,WeatherDisplay:10.37,2013-03-14 17:19:00,
2013-03-14 12:24:00,45.1,19.7,30.50,NE,36,1.1,1.1,36,0.00,CLR,,0.00,WeatherDisplay:10.37,2013-03-14 17:24:00,
2013-03-14 12:29:00,45.1,18.4,30.50,SSW,205,4.6,4.6,34,0.00,CLR,,0.00,WeatherDisplay:10.37,2013-03-14 17:29:00,
2013-03-14 12:34:00,45.4,17.2,30.49,SSW,202,3.5,0.0,32,0.00,CLR,,0.00,WeatherDisplay:10.37,2013-03-14 17:34:00,
2013-03-14 12:39:00,45.5,18.0,30.49,SE,139,3.5,3.5,33,0.00,CLR,,0.00,WeatherDisplay:10.37,2013-03-14 17:39:00,
2013-03-14 12:44:00,46.4,22.1,30.49,East,100,4.6,4.6,38,0.00,CLR,,0.00,WeatherDisplay:10.37,2013-03-14 17:44:00,
2013-03-14 12:49:00,46.5,18.9,30.48,ESE,117,3.5,3.5,33,0.00,CLR,,0.00,WeatherDisplay:10.37,2013-03-14 17:49:00,
2013-03-14 12:54:00,47.3,21.0,30.47,ESE,105,4.6,4.6,35,0.00,CLR,,0.00,WeatherDisplay:10.37,2013-03-14 17:54:00,
2013-03-14 12:59:00,47.6,18.4,30.47,East,83,3.5,3.5,31,0.00,CLR,,0.00,WeatherDisplay:10.37,2013-03-14 17:59:00,
2013-03-14 13:04:00,47.9,18.7,30.47,SSE,165,1.1,1.1,31,0.00,CLR,,0.00,WeatherDisplay:10.37,2013-03-14 18:04:00,
2013-03-14 13:09:00,48.6,20.8,30.47,SSE,150,4.0,4.0,33,0.00,CLR,,0.00,WeatherDisplay:10.37,2013-03-14 18:09:00,
2013-03-14 13:14:00,48.9,18.0,30.47,East,79,1.1,0.0,29,0.00,CLR,,0.00,WeatherDisplay:10.37,2013-03-14 18:14:00,
2013-03-14 13:19:00,49.6,17.8,30.46,South,184,1.1,1.1,28,0.00,CLR,,0.00,WeatherDisplay:10.37,2013-03-14 18:19:00,
2013-03-14 13:24:00,49.6,17.8,30.46,SSE,150,0.0,0.0,28,0.00,CLR,,0.00,WeatherDisplay:10.37,2013-03-14 18:24:00,
2013-03-14 13:29:00,49.8,16.2,30.45,SSW,213,3.5,3.5,26,0.00,CLR,,0.00,WeatherDisplay:10.37,2013-03-14 18:29:00,
2013-03-14 13:34:00,49.2,15.7,30.45,SE,135,1.1,0.0,26,0.00,CLR,,0.00,WeatherDisplay:10.37,2013-03-14 18:34:00,
2013-03-14 13:39:00,49.4,16.8,30.45,ESE,107,3.5,3.5,27,0.00,CLR,,0.00,WeatherDisplay:10.37,2013-03-14 18:39:00,
2013-03-14 13:44:00,49.9,17.2,30.45,SSE,151,2.3,0.0,27,0.00,CLR,,0.00,WeatherDisplay:10.37,2013-03-14 18:44:00,
2013-03-14 13:49:00,50.1,17.4,30.44,SW,230,5.8,5.8,27,0.00,CLR,,0.00,WeatherDisplay:10.37,2013-03-14 18:49:00,
2013-03-14 13:54:00,50.5,17.7,30.44,SW,215,1.1,1.3,27,0.00,CLR,,0.00,WeatherDisplay:10.37,2013-03-14 18:54:00,
2013-03-14 13:59:00,51.4,18.5,30.44,SW,220,0.0,0.0,27,0.00,CLR,,0.00,WeatherDisplay:10.37,2013-03-14 18:59:00,
2013-03-14 14:04:00,51.7,18.7,30.43,ESE,104,2.3,2.3,27,0.00,CLR,,0.00,WeatherDisplay:10.37,2013-03-14 19:04:00,
2013-03-14 14:09:00,51.9,18.9,30.43,South,178,2.3,0.0,27,0.00,CLR,,0.00,WeatherDisplay:10.37,2013-03-14 19:09:00,
2013-03-14 14:14:00,52.3,17.5,30.43,WSW,245,4.6,4.6,25,0.00,CLR,,0.00,WeatherDisplay:10.37,2013-03-14 19:14:00,
2013-03-14 14:19:00,52.8,17.9,30.43,SSW,205,3.5,3.5,25,0.00,CLR,,0.00,WeatherDisplay:10.37,2013-03-14 19:19:00,
2013-03-14 14:24:00,52.8,18.8,30.42,SSW,206,1.0,6.0,26,0.00,CLR,,0.00,WeatherDisplay:10.37,2013-03-14 19:24:00,
2013-03-14 14:29:00,52.9,19.8,30.42,SW,217,5.0,5.0,27,0.00,CLR,,0.00,WeatherDisplay:10.37,2013-03-14 19:29:00,
2013-03-14 14:34:00,52.8,18.8,30.42,South,171,0.0,6.0,26,0.00,CLR,,0.00,WeatherDisplay:10.37,2013-03-14 19:34:00,
2013-03-14 14:39:00,53.3,20.1,30.42,SE,143,3.5,3.5,27,0.00,CLR,,0.00,WeatherDisplay:10.37,2013-03-14 19:39:00,
2013-03-14 14:44:00,53.6,19.5,30.41,SE,141,0.0,2.0,26,0.00,CLR,,0.00,WeatherDisplay:10.37,2013-03-14 19:44:00,
2013-03-14 14:49:00,54.2,20.0,30.41,WNW,283,2.3,2.3,26,0.00,CLR,,0.00,WeatherDisplay:10.37,2013-03-14 19:49:00,
2013-03-14 14:55:00,54.5,17.4,30.40,SSW,192,3.5,0.0,23,0.00,CLR,,0.00,WeatherDisplay:10.37,2013-03-14 19:55:00,
2013-03-14 15:00:00,55.3,21.0,30.40,SSW,202,3.5,3.5,26,0.00,CLR,,0.00,WeatherDisplay:10.37,2013-03-14 20:00:00,
2013-03-14 15:05:00,55.7,20.4,30.40,SW,215,4.0,4.0,25,0.00,CLR,,0.00,WeatherDisplay:10.37,2013-03-14 20:05:00,
2013-03-14 15:10:00,55.6,22.1,30.39,South,186,0.0,0.0,27,0.00,CLR,,0.00,WeatherDisplay:10.37,2013-03-14 20:10:00,
2013-03-14 15:15:00,55.4,22.8,30.39,South,171,0.0,0.0,28,0.00,CLR,,0.00,WeatherDisplay:10.37,2013-03-14 20:15:00,
2013-03-14 15:20:00,55.4,19.2,30.39,SSE,167,3.5,0.0,24,0.00,CLR,,0.00,WeatherDisplay:10.37,2013-03-14 20:20:00,
2013-03-14 15:25:00,55.9,19.6,30.39,SW,218,1.1,0.0,24,0.00,CLR,,0.00,WeatherDisplay:10.37,2013-03-14 20:25:00,
2013-03-14 15:30:00,56.0,20.6,30.38,WSW,248,1.1,0.0,25,0.00,CLR,,0.00,WeatherDisplay:10.37,2013-03-14 20:30:00,
2013-03-14 15:35:00,56.3,18.9,30.38,WSW,248,0.0,0.0,23,0.00,CLR,,0.00,WeatherDisplay:10.37,2013-03-14 20:35:00,
2013-03-14 15:40:00,56.7,17.1,30.38,WNW,287,3.5,3.5,21,0.00,CLR,,0.00,WeatherDisplay:10.37,2013-03-14 20:40:00,
2013-03-14 15:45:00,56.5,9.3,30.38,South,171,2.3,2.3,15,0.00,CLR,,0.00,WeatherDisplay:10.37,2013-03-14 20:45:00,
2013-03-14 15:50:00,56.4,12.0,30.38,WSW,239,0.0,5.0,17,0.00,CLR,,0.00,WeatherDisplay:10.37,2013-03-14 20:50:00,
2013-03-14 15:55:00,56.7,14.8,30.38,NNW,346,1.1,0.0,19,0.00,CLR,,0.00,WeatherDisplay:10.37,2013-03-14 20:55:00,
2013-03-14 16:00:00,56.9,11.1,30.38,WNW,284,4.6,4.6,16,0.00,CLR,,0.00,WeatherDisplay:10.37,2013-03-14 21:00:00,
2013-03-14 16:05:00,56.0,10.4,30.38,West,274,1.1,0.0,16,0.00,CLR,,0.00,WeatherDisplay:10.37,2013-03-14 21:05:00,
2013-03-14 16:10:00,55.7,12.8,30.38,NW,320,0.0,5.0,18,0.00,CLR,,0.00,WeatherDisplay:10.37,2013-03-14 21:10:00,
2013-03-14 16:15:00,55.6,11.4,30.38,SW,220,3.5,3.5,17,0.00,CLR,,0.00,WeatherDisplay:10.37,2013-03-14 21:15:00,
2013-03-14 16:20:00,55.1,12.3,30.37,SW,227,3.5,3.5,18,0.00,CLR,,0.00,WeatherDisplay:10.37,2013-03-14 21:20:00,
2013-03-14 16:25:00,55.0,12.2,30.37,NW,313,3.5,3.5,18,0.00,CLR,,0.00,WeatherDisplay:10.37,2013-03-14 21:25:00,
2013-03-14 16:30:00,54.8,14.4,30.37,NNW,341,1.1,1.1,20,0.00,CLR,,0.00,WeatherDisplay:10.37,2013-03-14 21:30:00,
2013-03-14 16:35:00,54.7,13.2,30.38,West,263,1.1,0.0,19,0.00,CLR,,0.00,WeatherDisplay:10.37,2013-03-14 21:35:00,
2013-03-14 16:40:00,54.5,14.2,30.39,West,280,3.5,3.5,20,0.00,CLR,,0.00,WeatherDisplay:10.37,2013-03-14 21:40:00,
2013-03-14 16:45:00,54.1,15.0,30.38,West,281,1.1,1.1,21,0.00,CLR,,0.00,WeatherDisplay:10.37,2013-03-14 21:45:00,
2013-03-14 16:50:00,53.5,13.4,30.39,NW,306,3.5,3.5,20,0.00,CLR,,0.00,WeatherDisplay:10.37,2013-03-14 21:50:00,
2013-03-14 16:55:00,53.1,14.1,30.39,West,261,1.1,1.1,21,0.00,CLR,,0.00,WeatherDisplay:10.37,2013-03-14 21:55:00,
2013-03-14 17:00:00,52.8,13.9,30.38,West,279,3.5,3.5,21,0.00,CLR,,0.00,WeatherDisplay:10.37,2013-03-14 22:00:00,
2013-03-14 17:05:00,52.5,14.7,30.39,WSW,248,1.1,0.0,22,0.00,CLR,,0.00,WeatherDisplay:10.37,2013-03-14 22:05:00,
2013-03-14 17:10:00,52.3,14.5,30.39,West,273,2.0,0.0,22,0.00,CLR,,0.00,WeatherDisplay:10.37,2013-03-14 22:10:00,
2013-03-14 17:15:00,52.2,13.4,30.40,West,278,10.4,10.4,21,0.00,CLR,,0.00,WeatherDisplay:10.37,2013-03-14 22:15:00,
2013-03-14 17:20:00,51.9,12.0,30.39,WNW,300,4.6,4.6,20,0.00,CLR,,0.00,WeatherDisplay:10.37,2013-03-14 22:20:00,
2013-03-14 17:25:00,51.6,12.9,30.39,NNE,22,5.8,5.8,21,0.00,CLR,,0.00,WeatherDisplay:10.37,2013-03-14 22:25:00,
2013-03-14 17:30:00,51.4,14.8,30.39,WSW,245,0.0,0.0,23,0.00,CLR,,0.00,WeatherDisplay:10.37,2013-03-14 22:30:00,
2013-03-14 17:35:00,51.3,13.7,30.39,NNE,29,3.0,3.0,22,0.00,CLR,,0.00,WeatherDisplay:10.37,2013-03-14 22:35:00,
2013-03-14 17:40:00,51.1,14.5,30.39,NNE,30,0.0,0.0,23,0.00,CLR,,0.00,WeatherDisplay:10.37,2013-03-14 22:40:00,
2013-03-14 17:45:00,51.0,14.4,30.39,NNE,30,1.1,0.0,23,0.00,CLR,,0.00,WeatherDisplay:10.37,2013-03-14 22:45:00,
2013-03-14 17:50:00,50.8,16.2,30.39,NE,55,1.1,0.0,25,0.00,CLR,,0.00,WeatherDisplay:10.37,2013-03-14 22:50:00,
2013-03-14 17:55:00,50.7,16.1,30.38,NNE,19,2.0,2.0,25,0.00,CLR,,0.00,WeatherDisplay:10.37,2013-03-14 22:55:00,
2013-03-14 18:00:00,50.5,16.8,30.38,WNW,298,3.5,3.5,26,0.00,CLR,,0.00,WeatherDisplay:10.37,2013-03-14 23:00:00,
2013-03-14 18:05:00,50.2,17.5,30.38,WNW,298,0.0,0.0,27,0.00,CLR,,0.00,WeatherDisplay:10.37,2013-03-14 23:05:00,
2013-03-14 18:10:00,50.1,17.4,30.39,WNW,298,0.0,0.0,27,0.00,CLR,,0.00,WeatherDisplay:10.37,2013-03-14 23:10:00,
2013-03-14 18:15:00,49.9,18.9,30.39,WNW,298,0.0,0.0,29,0.00,CLR,,0.00,WeatherDisplay:10.37,2013-03-14 23:15:00,
2013-03-14 18:20:00,49.9,19.7,30.38,WNW,298,0.0,0.0,30,0.00,CLR,,0.00,WeatherDisplay:10.37,2013-03-14 23:20:00,
2013-03-14 18:25:00,49.8,20.3,30.39,NNW,345,0.0,0.0,31,0.00,CLR,,0.00,WeatherDisplay:10.37,2013-03-14 23:25:00,
2013-03-14 18:30:00,49.8,21.1,30.39,NNW,347,0.0,0.0,32,0.00,CLR,,0.00,WeatherDisplay:10.37,2013-03-14 23:30:00,
2013-03-14 18:35:00,49.6,20.2,30.38,NNW,347,0.0,0.0,31,0.00,CLR,,0.00,WeatherDisplay:10.37,2013-03-14 23:35:00,
2013-03-14 18:40:00,49.5,19.3,30.38,NNW,347,0.0,0.0,30,0.00,CLR,,0.00,WeatherDisplay:10.37,2013-03-14 23:40:00,
2013-03-14 18:45:00,49.5,19.3,30.38,NNW,347,0.0,0.0,30,0.00,CLR,,0.00,WeatherDisplay:10.37,2013-03-14 23:45:00,
2013-03-14 18:50:00,49.5,21.5,30.38,NNW,347,0.0,0.0,33,0.00,CLR,,0.00,WeatherDisplay:10.37,2013-03-14 23:50:00,
2013-03-14 18:55:00,49.4,20.0,30.38,NNW,347,0.0,0.0,31,0.00,CLR,,0.00,WeatherDisplay:10.37,2013-03-14 23:55:00,
2013-03-14 19:00:00,49.4,21.5,30.38,NNW,347,1.1,0.0,33,0.00,CLR,,0.00,WeatherDisplay:10.37,2013-03-15 00:00:00,
2013-03-14 19:05:00,49.2,22.7,30.38,NNW,347,0.0,0.0,35,0.00,CLR,,0.00,WeatherDisplay:10.37,2013-03-15 00:05:00,
2013-03-14 19:10:00,49.1,23.3,30.39,NNW,347,0.0,0.0,36,0.00,CLR,,0.00,WeatherDisplay:10.37,2013-03-15 00:10:00,
2013-03-14 19:15:00,48.9,23.1,30.39,NNW,347,0.0,0.0,36,0.00,CLR,,0.00,WeatherDisplay:10.37,2013-03-15 00:15:00,
2013-03-14 19:20:00,48.6,26.5,30.39,NNE,30,3.5,3.5,42,0.00,CLR,,0.00,WeatherDisplay:10.37,2013-03-15 00:20:00,
2013-03-14 19:25:00,48.2,27.3,30.40,West,276,3.5,3.5,44,0.00,CLR,,0.00,WeatherDisplay:10.37,2013-03-15 00:25:00,
2013-03-14 19:30:00,47.7,29.5,30.40,SW,231,3.5,3.5,49,0.00,CLR,,0.00,WeatherDisplay:10.37,2013-03-15 00:30:00,
2013-03-14 19:35:00,46.8,32.8,30.41,South,188,6.9,6.9,58,0.00,CLR,,0.00,WeatherDisplay:10.37,2013-03-15 00:35:00,
2013-03-14 19:40:00,45.5,33.2,30.41,West,262,2.3,2.3,62,0.00,CLR,,0.00,WeatherDisplay:10.37,2013-03-15 00:40:00,
2013-03-14 19:45:00,44.5,34.2,30.42,West,270,3.5,3.5,67,0.01,RA,,0.01,WeatherDisplay:10.37,2013-03-15 00:45:00,
2013-03-14 19:50:00,43.3,33.4,30.41,South,191,3.5,3.5,68,0.02,RA,,0.02,WeatherDisplay:10.37,2013-03-15 00:50:00,
2013-03-14 19:55:00,42.9,34.1,30.41,South,191,0.0,0.0,71,0.03,RA,,0.03,WeatherDisplay:10.37,2013-03-15 00:55:00,
2013-03-14 20:00:00,42.5,35.1,30.41,SSW,194,0.0,0.0,75,0.04,RA,,0.04,WeatherDisplay:10.37,2013-03-15 01:00:00,
2013-03-14 20:05:00,42.2,36.2,30.41,SSW,196,0.0,0.0,79,0.04,RA,,0.04,WeatherDisplay:10.37,2013-03-15 01:05:00,
2013-03-14 20:10:00,41.9,36.5,30.41,SSW,196,0.0,0.0,81,0.04,,,0.04,WeatherDisplay:10.37,2013-03-15 01:10:00,
2013-03-14 20:15:00,41.8,37.0,30.41,SSW,196,0.0,0.0,83,0.04,CLR,,0.04,WeatherDisplay:10.37,2013-03-15 01:15:00,
2013-03-14 20:20:00,41.6,36.8,30.41,SSW,196,0.0,0.0,83,0.04,CLR,,0.04,WeatherDisplay:10.37,2013-03-15 01:20:00,
2013-03-14 20:25:00,41.6,37.1,30.41,SSW,196,0.0,0.0,84,0.04,CLR,,0.04,WeatherDisplay:10.37,2013-03-15 01:25:00,
2013-03-14 20:30:00,41.5,37.3,30.41,SSW,196,0.0,0.0,85,0.04,CLR,,0.04,WeatherDisplay:10.37,2013-03-15 01:30:00,
2013-03-14 20:35:00,41.3,37.4,30.41,SSW,196,0.0,0.0,86,0.04,CLR,,0.04,WeatherDisplay:10.37,2013-03-15 01:35:00,
2013-03-14 20:40:00,41.3,37.4,30.41,SSW,196,0.0,0.0,86,0.04,CLR,,0.04,WeatherDisplay:10.37,2013-03-15 01:40:00,
2013-03-14 20:45:00,41.3,37.4,30.40,SSW,196,0.0,0.0,86,0.03,CLR,,0.04,WeatherDisplay:10.37,2013-03-15 01:45:00,
2013-03-14 20:50:00,41.2,37.3,30.41,SSW,196,0.0,0.0,86,0.02,CLR,,0.04,WeatherDisplay:10.37,2013-03-15 01:50:00,
2013-03-14 20:55:00,41.2,37.6,30.41,SSW,196,0.0,0.0,87,0.01,CLR,,0.04,WeatherDisplay:10.37,2013-03-15 01:55:00,
2013-03-14 21:00:00,41.2,37.6,30.39,SSW,196,0.0,0.0,87,0.00,CLR,,0.04,WeatherDisplay:10.37,2013-03-15 02:00:00,
2013-03-14 21:05:00,41.1,36.9,30.40,SSW,196,0.0,0.0,85,0.00,CLR,,0.04,WeatherDisplay:10.37,2013-03-15 02:05:00,
2013-03-14 21:10:00,41.1,36.9,30.40,SSW,196,0.0,0.0,85,0.00,CLR,,0.04,WeatherDisplay:10.37,2013-03-15 02:10:00,
2013-03-14 21:15:00,41.1,36.9,30.40,SSW,196,0.0,0.0,85,0.00,CLR,,0.04,WeatherDisplay:10.37,2013-03-15 02:15:00,
2013-03-14 21:20:00,41.1,36.9,30.39,SSW,196,0.0,0.0,85,0.00,CLR,,0.04,WeatherDisplay:10.37,2013-03-15 02:20:00,
2013-03-14 21:25:00,41.1,36.9,30.39,SSW,196,0.0,0.0,85,0.00,CLR,,0.04,WeatherDisplay:10.37,2013-03-15 02:25:00,
2013-03-14 21:30:00,41.1,36.6,30.40,SSE,157,1.1,0.0,84,0.00,CLR,,0.04,WeatherDisplay:10.37,2013-03-15 02:30:00,
2013-03-14 21:35:00,40.9,36.4,30.39,SSE,157,1.1,0.0,84,0.00,CLR,,0.04,WeatherDisplay:10.37,2013-03-15 02:35:00,
2013-03-14 21:40:00,40.9,36.1,30.39,SSE,157,0.0,0.0,83,0.00,CLR,,0.04,WeatherDisplay:10.37,2013-03-15 02:40:00,
2013-03-14 21:45:00,40.8,36.3,30.39,SSE,157,0.0,0.0,84,0.00,CLR,,0.04,WeatherDisplay:10.37,2013-03-15 02:45:00,
2013-03-14 21:50:00,40.8,36.0,30.39,SSE,157,0.0,0.0,83,0.00,CLR,,0.04,WeatherDisplay:10.37,2013-03-15 02:50:00,
2013-03-14 21:55:00,40.8,36.0,30.39,SSE,157,1.1,0.0,83,0.00,CLR,,0.04,WeatherDisplay:10.37,2013-03-15 02:55:00,
2013-03-14 22:00:00,40.8,35.7,30.39,SSE,157,0.0,0.0,82,0.00,CLR,,0.04,WeatherDisplay:10.37,2013-03-15 03:00:00,
2013-03-14 22:05:00,40.8,35.7,30.39,SSE,157,0.0,0.0,82,0.00,CLR,,0.04,WeatherDisplay:10.37,2013-03-15 03:05:00,
2013-03-14 22:10:00,40.8,36.0,30.39,SE,141,1.1,0.0,83,0.00,CLR,,0.04,WeatherDisplay:10.37,2013-03-15 03:10:00,
2013-03-14 22:15:00,40.8,36.0,30.39,SE,141,0.0,0.0,83,0.00,CLR,,0.04,WeatherDisplay:10.37,2013-03-15 03:15:00,
2013-03-14 22:20:00,40.8,36.0,30.39,SE,141,0.0,0.0,83,0.00,CLR,,0.04,WeatherDisplay:10.37,2013-03-15 03:20:00,
2013-03-14 22:25:00,40.6,35.8,30.39,SE,141,0.0,0.0,83,0.00,CLR,,0.04,WeatherDisplay:10.37,2013-03-15 03:25:00,
2013-03-14 22:30:00,40.6,35.8,30.39,SE,141,0.0,0.0,83,0.00,CLR,,0.04,WeatherDisplay:10.37,2013-03-15 03:30:00,
2013-03-14 22:35:00,40.5,35.7,30.39,SE,141,0.0,0.0,83,0.00,CLR,,0.04,WeatherDisplay:10.37,2013-03-15 03:35:00,
2013-03-14 22:40:00,40.3,35.5,30.39,SE,141,0.0,0.0,83,0.00,CLR,,0.04,WeatherDisplay:10.37,2013-03-15 03:40:00,
2013-03-14 22:45:00,40.3,35.8,30.39,SE,141,0.0,0.0,84,0.00,CLR,,0.04,WeatherDisplay:10.37,2013-03-15 03:45:00,
2013-03-14 22:50:00,40.2,35.8,30.39,SE,141,0.0,0.0,84,0.00,CLR,,0.04,WeatherDisplay:10.37,2013-03-15 03:50:00,
2013-03-14 22:55:00,40.2,36.1,30.39,SE,141,0.0,0.0,85,0.00,CLR,,0.04,WeatherDisplay:10.37,2013-03-15 03:55:00,
2013-03-14 23:00:00,40.2,36.1,30.39,SE,141,0.0,0.0,85,0.00,CLR,,0.04,WeatherDisplay:10.37,2013-03-15 04:00:00,
2013-03-14 23:02:00,40.2,36.1,30.39,SE,141,0.0,0.0,85,0.00,CLR,,0.04,WeatherDisplay:10.37,2013-03-15 04:02:00,
2013-03-14 23:07:00,40.2,36.1,30.39,SE,141,0.0,0.0,85,0.00,CLR,,0.04,WeatherDisplay:10.37,2013-03-15 04:07:00,
2013-03-14 23:12:00,40.3,36.4,30.39,SE,141,0.0,0.0,86,0.00,CLR,,0.04,WeatherDisplay:10.37,2013-03-15 04:12:00,
2013-03-14 23:17:00,40.3,36.1,30.39,SE,141,0.0,0.0,85,0.00,CLR,,0.04,WeatherDisplay:10.37,2013-03-15 04:17:00,
2013-03-14 23:22:00,40.5,36.3,30.39,SE,141,0.0,0.0,85,0.00,CLR,,0.04,WeatherDisplay:10.37,2013-03-15 04:22:00,
2013-03-14 23:27:00,40.5,36.3,30.38,SE,141,0.0,0.0,85,0.00,CLR,,0.04,WeatherDisplay:10.37,2013-03-15 04:27:00,
2013-03-14 23:32:00,40.3,36.1,30.38,SE,141,0.0,0.0,85,0.00,CLR,,0.04,WeatherDisplay:10.37,2013-03-15 04:32:00,
2013-03-14 23:37:00,40.3,35.8,30.37,SE,141,0.0,0.0,84,0.00,CLR,,0.04,WeatherDisplay:10.37,2013-03-15 04:37:00,
2013-03-14 23:42:00,40.2,36.1,30.37,SE,141,0.0,0.0,85,0.00,CLR,,0.04,WeatherDisplay:10.37,2013-03-15 04:42:00,
2013-03-14 23:47:00,40.2,36.1,30.38,SE,141,0.0,0.0,85,0.00,CLR,,0.04,WeatherDisplay:10.37,2013-03-15 04:47:00,
2013-03-14 23:52:00,40.1,36.0,30.37,SE,141,0.0,0.0,85,0.00,CLR,,0.04,WeatherDisplay:10.37,2013-03-15 04:52:00,
2013-03-14 23:57:00,40.1,36.0,30.38,SE,141,0.0,0.0,85,0.00,CLR,,0.04,WeatherDisplay:10.37,2013-03-15 04:57:00,